TimeCDT,TemperatureF,Dew PointF,Humidity,Sea Level PressureIn,VisibilityMPH,Wind Direction,Wind SpeedMPH,Gust SpeedMPH,PrecipitationIn,Events,Conditions,WindDirDegrees,DateUTC
12:58 AM,72.0,70.0,93,29.98,10.0,ENE,3.5,-,N/A,,Scattered Clouds,60,2013-09-10 05:58:00
1:58 AM,72.0,69.8,93,29.97,10.0,East,4.6,-,N/A,,Clear,80,2013-09-10 06:58:00
2:23 AM,71.6,69.8,94,30.00,10.0,East,3.5,-,N/A,,Mostly Cloudy,90,2013-09-10 07:23:00
2:33 AM,73.4,69.8,88,30.00,10.0,East,4.6,-,N/A,,Mostly Cloudy,90,2013-09-10 07:33:00
2:58 AM,73.0,70.9,93,29.98,10.0,East,4.6,-,N/A,,Mostly Cloudy,90,2013-09-10 07:58:00
3:03 AM,73.4,71.6,94,30.00,10.0,East,4.6,-,N/A,,Mostly Cloudy,90,2013-09-10 08:03:00
3:08 AM,73.4,71.6,94,29.99,7.0,East,5.8,-,N/A,,Mostly Cloudy,90,2013-09-10 08:08:00
3:13 AM,73.4,71.6,94,29.99,10.0,East,5.8,-,N/A,,Mostly Cloudy,90,2013-09-10 08:13:00
3:18 AM,73.4,71.6,94,29.99,10.0,East,5.8,-,N/A,,Mostly Cloudy,90,2013-09-10 08:18:00
3:28 AM,73.4,71.6,94,30.00,10.0,East,5.8,-,N/A,,Mostly Cloudy,90,2013-09-10 08:28:00
3:38 AM,73.4,69.8,88,29.99,10.0,East,6.9,-,N/A,,Mostly Cloudy,90,2013-09-10 08:38:00
3:48 AM,73.4,69.8,88,29.99,10.0,East,6.9,-,N/A,,Mostly Cloudy,90,2013-09-10 08:48:00
3:58 AM,73.0,70.9,93,29.97,10.0,East,5.8,-,0.00,,Drizzle,90,2013-09-10 08:58:00
4:03 AM,73.4,71.6,94,29.99,10.0,East,6.9,-,N/A,,Mostly Cloudy,90,2013-09-10 09:03:00
4:08 AM,73.4,69.8,88,29.99,10.0,East,6.9,-,N/A,,Scattered Clouds,80,2013-09-10 09:08:00
4:46 AM,71.6,69.8,94,29.99,10.0,East,9.2,-,N/A,,Partly Cloudy,80,2013-09-10 09:46:00
4:58 AM,72.3,70.5,94,29.97,10.0,East,6.9,-,0.00,,Partly Cloudy,80,2013-09-10 09:58:00
5:58 AM,72.3,70.5,94,29.97,10.0,East,8.1,-,N/A,,Partly Cloudy,80,2013-09-10 10:58:00
6:58 AM,71.8,70.0,94,29.99,10.0,East,5.8,-,N/A,,Scattered Clouds,80,2013-09-10 11:58:00
7:15 AM,71.6,69.8,94,30.02,10.0,East,5.8,-,N/A,,Mostly Cloudy,80,2013-09-10 12:15:00
7:43 AM,71.6,69.8,94,30.03,10.0,East,6.9,-,N/A,,Overcast,80,2013-09-10 12:43:00
7:53 AM,73.4,71.6,94,30.03,8.0,ENE,5.8,-,N/A,,Mostly Cloudy,70,2013-09-10 12:53:00
7:58 AM,72.7,70.9,94,30.01,8.0,East,8.1,-,N/A,,Mostly Cloudy,80,2013-09-10 12:58:00
8:03 AM,73.4,71.6,94,30.03,10.0,East,6.9,-,N/A,,Mostly Cloudy,90,2013-09-10 13:03:00
8:13 AM,73.4,71.6,94,30.03,10.0,East,6.9,-,N/A,,Mostly Cloudy,80,2013-09-10 13:13:00
8:18 AM,73.4,71.6,94,30.03,10.0,East,8.1,-,N/A,,Mostly Cloudy,80,2013-09-10 13:18:00
8:22 AM,73.4,71.6,94,30.03,9.0,East,6.9,-,N/A,,Mostly Cloudy,80,2013-09-10 13:22:00
8:27 AM,73.4,71.6,94,30.03,10.0,East,8.1,-,N/A,,Mostly Cloudy,90,2013-09-10 13:27:00
8:52 AM,75.2,71.6,89,30.04,10.0,East,8.1,-,N/A,,Mostly Cloudy,90,2013-09-10 13:52:00
8:58 AM,75.0,72.0,90,30.03,10.0,East,10.4,-,N/A,,Mostly Cloudy,90,2013-09-10 13:58:00
9:29 AM,78.8,71.6,78,30.05,10.0,East,11.5,-,N/A,,Mostly Cloudy,90,2013-09-10 14:29:00
9:33 AM,75.2,71.6,89,30.03,10.0,ESE,8.1,-,N/A,,Mostly Cloudy,110,2013-09-10 14:33:00
9:34 AM,78.8,71.6,78,30.05,10.0,East,10.4,-,N/A,,Scattered Clouds,100,2013-09-10 14:34:00
9:55 AM,80.4,72.5,77,30.03,10.0,ESE,6.9,-,N/A,,Scattered Clouds,110,2013-09-10 14:55:00
10:11 AM,80.6,71.6,74,30.05,10.0,East,10.4,-,N/A,,Mostly Cloudy,100,2013-09-10 15:11:00
10:13 AM,80.6,71.6,74,30.05,10.0,East,9.2,-,N/A,,Mostly Cloudy,100,2013-09-10 15:13:00
10:15 AM,78.8,71.6,78,30.05,10.0,ESE,9.2,-,N/A,,Mostly Cloudy,120,2013-09-10 15:15:00
10:22 AM,80.6,71.6,74,30.05,10.0,East,10.4,-,N/A,,Mostly Cloudy,100,2013-09-10 15:22:00
10:26 AM,80.6,71.6,74,30.06,10.0,ESE,8.1,-,N/A,,Mostly Cloudy,120,2013-09-10 15:26:00
10:27 AM,80.6,71.6,74,30.06,10.0,ESE,8.1,-,N/A,,Mostly Cloudy,110,2013-09-10 15:27:00
10:33 AM,80.6,71.6,74,30.03,10.0,ESE,8.1,-,N/A,,Mostly Cloudy,120,2013-09-10 15:33:00
10:56 AM,82.4,71.6,70,30.04,10.0,ESE,10.4,-,N/A,,Mostly Cloudy,110,2013-09-10 15:56:00
11:59 AM,82.4,71.6,70,30.04,10.0,ESE,10.4,-,N/A,,Mostly Cloudy,110,2013-09-10 16:59:00
12:58 PM,87.8,68.7,53,30.02,10.0,ESE,12.7,18.4,N/A,,Scattered Clouds,110,2013-09-10 17:58:00
1:55 PM,89.6,68.0,49,30.03,10.0,WSW,10.4,-,N/A,,Mostly Cloudy,240,2013-09-10 18:55:00
2:32 PM,84.2,71.6,66,30.02,10.0,SSW,12.7,-,N/A,Rain-Thunderstorm,Light Rain Showers,200,2013-09-10 19:32:00
2:41 PM,80.6,71.6,74,29.99,10.0,SSW,9.2,19.6,N/A,Thunderstorm,Mostly Cloudy,210,2013-09-10 19:41:00
2:56 PM,78.8,69.8,74,29.99,10.0,SSW,9.2,-,N/A,Rain,Light Rain Showers,200,2013-09-10 19:56:00
3:43 PM,82.4,73.4,74,29.99,7.0,South,11.5,19.6,N/A,,Mostly Cloudy,170,2013-09-10 20:43:00
3:58 PM,83.3,69.3,62,29.99,10.0,South,9.2,-,N/A,,Mostly Cloudy,170,2013-09-10 20:58:00
4:41 PM,86.0,69.8,58,30.02,10.0,SE,17.3,-,N/A,Thunderstorm,Partly Cloudy,130,2013-09-10 21:41:00
4:54 PM,78.8,73.4,83,30.03,10.0,ESE,20.7,29.9,N/A,Rain,Light Rain Showers,110,2013-09-10 21:54:00
4:58 PM,77.0,71.6,83,30.01,6.0,East,15.0,29.9,0.00,Rain,Light Rain Showers,100,2013-09-10 21:58:00
5:03 PM,75.2,71.6,89,30.02,4.0,ESE,8.1,-,N/A,Rain,Light Rain,120,2013-09-10 22:03:00
5:08 PM,75.2,71.6,89,30.02,5.0,East,8.1,-,N/A,Rain,Light Rain,90,2013-09-10 22:08:00
5:58 PM,77.2,73.0,87,30.00,10.0,ESE,9.2,-,0.01,,Clear,110,2013-09-10 22:58:00
6:58 PM,77.5,71.8,82,30.01,10.0,ESE,10.4,-,N/A,,Scattered Clouds,120,2013-09-10 23:58:00
7:58 PM,75.9,69.3,80,30.01,10.0,SSE,9.2,-,N/A,,Clear,150,2013-09-11 00:58:00
8:58 PM,74.3,69.4,85,30.02,10.0,East,2.3,-,N/A,,Clear,80,2013-09-11 01:58:00
9:58 PM,73.6,70.0,88,30.06,10.0,NE,2.3,-,N/A,,Clear,40,2013-09-11 02:58:00
10:58 PM,73.2,69.6,88,30.07,10.0,Calm,Calm,-,N/A,,Clear,0,2013-09-11 03:58:00
11:58 PM,72.7,69.6,90,30.05,10.0,NNE,2.3,-,N/A,,Partly Cloudy,20,2013-09-11 04:58:00